Back to catalog

COSMOS 2488

AliveNavigationPO
NORAD 39483·PAYLOAD·🇷🇺 Russia

Launched Dec 25, 2013 from Plesetsk Cosmodrome

Loading…

Next Passes (next 24 hours)

TLE

FreshSource: Space-Track

Epoch: Sep 14, 2026, 15:06 UTC

1 39483U 13076A   26257.62951741  .00000081  00000-0  51632-3 0  9990
2 39483  82.4808 112.9713 0018505 262.2561  97.6417 12.42908477577003

Track COSMOS 2488 in real time with AllMySat

Download on the App Store